Date,TemperatureHighF,TemperatureAvgF,TemperatureLowF,DewpointHighF,DewpointAvgF,DewpointLowF,HumidityHigh,HumidityAvg,HumidityLow,PressureMaxIn,PressureMinIn,WindSpeedMaxMPH,WindSpeedAvgMPH,GustSpeedMaxMPH,PrecipitationSumIn
2013-3-1,45,38,30,36,30,26,98,75,52,29.71,29.54,7,2,15,0.00
2013-3-2,40,36,33,27,26,23,74,67,59,29.71,29.64,10,3,13,0.00
2013-3-3,37,32,28,28,24,21,82,73,64,29.67,29.60,9,3,14,0.00
2013-3-4,37,31,27,23,21,19,75,67,55,29.81,29.67,16,4,20,0.00
2013-3-5,47,36,29,29,25,21,75,64,48,30.05,29.81,8,2,11,0.00
2013-3-6,40,37,34,35,31,27,89,80,72,30.06,29.99,13,4,23,0.02
2013-3-7,37,34,31,33,30,27,95,86,72,30.06,30.00,11,4,19,0.08
2013-3-8,41,35,30,32,29,25,96,80,57,30.17,29.96,19,3,21,0.18
2013-3-9,59,43,29,27,21,10,77,46,15,30.33,30.16,8,2,12,0.01
2013-3-10,54,40,25,34,29,23,95,69,39,30.40,30.26,8,1,12,0.00
2013-3-11,52,43,36,43,37,32,89,80,64,30.31,30.10,12,3,13,0.00
2013-3-12,54,50,43,53,47,36,96,91,76,30.10,29.67,12,2,19,0.91
2013-3-13,49,41,30,36,27,21,91,61,35,29.82,29.74,12,3,18,0.00
2013-3-14,37,30,26,27,16,8,66,55,40,29.87,29.79,15,4,22,0.00
2013-3-15,42,32,21,30,18,7,91,57,31,29.89,29.66,13,3,18,0.00
2013-3-16,40,33,24,24,16,11,72,51,34,29.88,29.72,9,2,15,0.00
2013-3-17,38,31,24,17,11,4,64,44,24,30.30,29.88,15,3,21,0.00
2013-3-18,39,29,16,27,8,2,93,43,22,30.45,30.16,7,1,11,0.00
2013-3-19,36,32,28,34,30,27,96,94,89,30.16,29.65,7,1,12,0.24
2013-3-20,41,32,25,29,21,18,88,66,41,29.81,29.72,9,2,17,0.13
2013-3-21,41,31,22,22,17,12,90,59,34,29.81,29.59,7,1,14,0.11
2013-3-22,39,31,20,27,19,12,78,61,43,29.80,29.65,12,2,15,0.00
2013-3-23,42,36,31,26,21,18,74,56,39,29.84,29.72,19,5,27,0.00
2013-3-24,47,38,30,25,23,22,71,55,39,29.87,29.71,8,2,16,0.00
2013-3-25,47,38,31,28,26,23,75,60,41,29.76,29.48,10,2,17,0.00
2013-3-26,48,40,30,31,26,20,73,59,35,29.81,29.56,10,1,13,0.00
2013-3-27,52,39,23,31,25,20,91,61,35,29.89,29.78,15,2,20,0.00
2013-3-28,52,43,33,36,32,28,88,65,43,30.04,29.89,8,2,15,0.02
2013-3-29,56,45,32,34,31,28,91,60,38,30.07,29.99,9,2,14,0.00
2013-3-30,57,46,31,31,25,17,86,48,22,30.11,30.01,12,2,16,0.00
2013-3-31,58,43,27,41,29,22,88,62,28,30.11,29.68,15,2,21,0.05